Content
SEND FEEDBACK

Daily
Averages
Monthly
Summary
United States of America

ST. LOUIS, MISSOURI


Home > North America > United States > Missouri
Elevation: 535 feet     Latitude: 38 45N     Longitude: 090 22W

WEATHER
 
SELECT A DAY
Number of Records: 196,318;   Date Range: 1/1/95 - 7/23/14
 
SHARE

PRINT THIS DATA

[ ← Previous Day ]
WEATHER ALMANAC - MARCH 19, 2013
[ Next Day → ]
[ °C ]   °F
Weather ElementAverageHighLow
Temperature36.9 °F46.9 °F (2:54 pm)28 °F (2:54 am)
Dewpoint18.4 °F27 °F (8:54 pm)10.9 °F (4:54 pm)
Humidity51.3 %79 % (10:54 pm)24 % (4:54 pm)
Barometer30.18 in30.24 in (12:54 pm)30.06 in (1:54 am)
Wind Speed6.4 mph12.7 mph (8:54 am)
Wind Gust18.4 mph (10:54 am)
Weather ElementAverage
Visibility10 mi
Wind DirectionWSW (232.2 °)

Weather ElementTotal
Precipitation---
Heating Degree Days27.6 (Base 65)
Averaged from 23 records on March 19, 2013
WEATHER CONDITIONS BREAKOUT
WIND DIRECTION BREAKOUT
WEATHER BY HOUR - MARCH 19, 2013
[ °C ]   °F
Local TimeTemperatureDewpointHumidityBarometerVisibilityWind DirectionWind SpeedGust SpeedPrecipitationEventsConditions
1:54 AM32.0 °F21.0 °F64 %30.06 in10.0 miWest (260°)4.6 mphClear
2:54 AM28.0 °F21.9 °F78 %30.09 in10.0 miWSW (250°)6.9 mphClear
3:54 AM32.0 °F21.0 °F64 %30.08 in10.0 miWSW (240°)8.1 mphClear
4:54 AM28.0 °F21.0 °F75 %30.09 in10.0 miWSW (240°)4.6 mphClear
5:54 AM28.9 °F19.0 °F67 %30.11 in10.0 miWest (280°)4.6 mphClear
6:54 AM28.9 °F18.0 °F64 %30.13 in10.0 miWSW (250°)6.9 mphClear
7:54 AM32.0 °F17.1 °F54 %30.13 in10.0 miWNW (290°)6.9 mphClear
8:54 AM34.0 °F16.0 °F48 %30.16 in10.0 miWNW (290°)12.7 mphClear
9:54 AM37.0 °F16.0 °F42 %30.21 in10.0 miWNW (290°)8.1 mphClear
10:54 AM39.9 °F15.1 °F36 %30.23 in10.0 miNW (310°)10.4 mph18.4 mphClear
11:54 AM43.0 °F16.0 °F34 %30.23 in10.0 miNW (320°)12.7 mphMostly Cloudy
12:54 PM45.0 °F15.1 °F30 %30.24 in10.0 miWNW (290°)10.4 mphClear
1:54 PM46.0 °F12.9 °F26 %30.23 in10.0 miWNW (290°)9.2 mphMostly Cloudy
2:54 PM46.9 °F12.9 °F25 %30.21 in10.0 miNW (310°)8.1 mphPartly Cloudy
3:54 PM46.9 °F14.0 °F27 %30.20 in10.0 miNW (310°)9.2 mphOvercast
4:54 PM46.0 °F10.9 °F24 %30.22 in10.0 miNNW (330°)9.2 mphOvercast
5:54 PM46.0 °F12.0 °F25 %30.22 in10.0 miWNW (290°)5.8 mphOvercast
6:54 PM43.0 °F21.9 °F43 %30.22 in10.0 miCalmOvercast
7:54 PM39.0 °F24.1 °F55 %30.22 in10.0 miCalmMostly Cloudy
8:54 PM36.0 °F27.0 °F70 %30.22 in10.0 miCalmClear
9:54 PM30.9 °F23.0 °F72 %30.23 in10.0 miSW (230°)3.5 mphClear
10:54 PM30.0 °F24.1 °F79 %30.22 in10.0 miCalmClear
11:54 PM30.0 °F24.1 °F79 %30.22 in10.0 miWest (270°)4.6 mphClear
Hourly data recorded from KSUS, located miles away from St. Louis, Missouri







STORIES FROM OUR PARTNERS